EST,Max TemperatureF,Mean TemperatureF,Min TemperatureF,Max Dew PointF,MeanDew PointF,Min DewpointF,Max Humidity, Mean Humidity, Min Humidity, Max Sea Level PressureIn, Mean Sea Level PressureIn, Min Sea Level PressureIn, Max VisibilityMiles, Mean VisibilityMiles, Min VisibilityMiles, Max Wind SpeedMPH, Mean Wind SpeedMPH, Max Gust SpeedMPH,PrecipitationIn, CloudCover, Events, WindDirDegrees
2011-12-1,56,43,30,28,25,22,72,49,26,30.39,30.32,30.20,10,10,10,14,2,16,0.00,0,,297
2011-12-2,60,45,29,28,21,8,78,46,13,30.54,30.42,30.36,10,10,10,22,7,29,0.00,0,,327
2011-12-3,50,40,30,30,27,24,78,62,46,30.68,30.61,30.54,10,10,10,10,3,21,T,0,Rain,124
2011-12-4,58,43,28,39,33,25,92,71,50,30.56,30.47,30.38,10,10,8,12,2,14,0.00,1,,119
2011-12-5,61,50,39,52,45,36,93,77,61,30.38,30.26,30.16,10,8,2,13,2,16,0.07,7,Rain,129
2011-12-6,59,56,52,58,56,52,100,97,93,30.15,30.05,29.95,6,2,0,6,1,7,0.52,8,Fog-Rain,54
2011-12-7,59,49,38,58,48,26,100,80,59,29.97,29.76,29.58,10,5,2,29,9,38,1.70,7,Rain,320
2011-12-8,48,39,29,27,21,15,75,55,34,30.35,30.26,30.05,10,10,10,24,7,32,0.00,0,,287
2011-12-9,50,38,26,31,27,23,92,67,42,30.35,30.30,30.22,10,10,10,6,1,7,0.00,0,,139
2011-12-10,46,37,28,30,21,15,82,58,33,30.55,30.41,30.28,10,10,10,17,6,22,0.00,0,,320
2011-12-11,41,31,21,21,17,15,84,62,40,30.71,30.61,30.54,10,10,10,9,2,12,0.00,0,,148
2011-12-12,45,35,24,27,22,20,81,61,41,30.62,30.55,30.46,10,10,10,5,0,6,0.00,1,,119
2011-12-13,61,47,33,41,34,25,82,63,44,30.49,30.43,30.38,10,10,10,21,5,26,T,4,,4
2011-12-14,55,50,44,37,34,30,71,59,47,30.42,30.37,30.29,10,10,10,10,3,13,0.00,5,,127
2011-12-15,65,51,37,52,42,32,85,71,56,30.26,30.13,30.02,10,10,10,18,4,26,T,3,Rain,209
2011-12-16,63,50,37,47,38,32,92,71,50,30.22,30.16,30.04,10,9,5,25,8,35,0.34,5,Rain,350
2011-12-17,42,36,30,37,25,20,92,69,45,30.28,30.22,30.16,10,10,10,18,8,23,0.00,2,,312
2011-12-18,48,38,28,25,22,19,78,56,34,30.35,30.29,30.23,10,10,10,23,7,31,0.00,3,,306
2011-12-19,58,42,25,28,23,20,81,52,23,30.32,30.23,30.15,10,10,10,20,7,25,0.00,2,,251
2011-12-20,58,52,45,41,31,21,71,51,30,30.20,30.14,30.10,10,10,10,20,4,24,0.00,3,,255
2011-12-21,61,53,44,55,50,40,89,81,72,30.09,29.97,29.87,10,10,6,10,3,12,0.06,5,Rain,138
2011-12-22,64,55,45,59,52,44,100,80,60,30.13,29.98,29.79,10,8,2,10,3,20,1.03,4,Rain,107
2011-12-23,61,52,43,56,37,30,71,63,54,30.28,30.13,29.82,10,10,4,28,11,37,0.09,7,Rain,296
2011-12-24,46,38,30,33,27,22,78,59,40,30.48,30.40,30.28,10,10,10,21,4,28,0.00,2,,336
2011-12-25,53,41,29,28,25,19,92,60,28,30.41,30.26,30.12,10,10,10,30,8,39,0.00,0,,269
2011-12-26,51,43,35,26,24,21,56,45,33,30.41,30.29,30.16,10,10,10,29,7,34,0.00,0,,323
2011-12-27,50,44,37,41,34,25,100,76,51,30.19,29.75,29.52,10,7,2,22,8,31,0.37,7,Rain,155
2011-12-28,46,39,32,28,22,18,57,45,33,30.06,29.90,29.68,10,10,10,29,14,41,T,3,,286
2011-12-29,48,39,30,28,24,21,78,59,40,30.10,30.03,29.97,10,10,10,12,3,14,0.00,1,,131
2011-12-30,59,44,29,44,32,23,72,51,30,30.07,29.96,29.88,10,10,10,20,7,26,0.00,2,,221
2011-12-31,57,47,37,43,37,32,96,72,47,30.16,30.01,29.86,10,10,7,23,6,31,0.01,3,Rain,292